Dewpoint
40 34 29 31 28 20 17 17 14 13 13 10 9 10 10 11 12 11 12 12 14 15 16 50 64 66 68 67 66 65 64 63 64 62 64 67 65 64 65 66 67 67 69 69
33 35 33 28 26 20 21 19 17 17 15 13 14 14 14 12 11 11 12 13 15 17 19 52 63 65 66 65 65 64 63 63 63 64 62 63 62 62 64 64 66 66 68 67
29 28 32 25 20 19 20 20 18 17 19 16 15 14 15 18 15 12 13 14 16 19 21 55 62 62 64 65 64 64 63 63 63 63 63 62 62 62 64 63 64 65 65 67
32 30 24 26 26 23 21 22 20 20 18 12 16 12 16 19 19 18 15 16 19 22 24 56 61 62 63 64 64 64 63 62 63 63 63 62 60 60 62 63 63 63 63 64
34 31 28 26 28 26 23 23 22 21 17 14 13 13 15 22 20 21 22 23 24 24 24 53 60 62 62 62 62 62 62 62 62 63 63 64 62 63 64 65 64 62 64 65
35 33 30 29 29 28 26 21 19 18 15 11 12 13 16 18 19 21 23 23 24 24 26 52 60 63 63 63 62 61 62 61 63 63 64 64 63 62 62 60 60 59 59 60
36 35 32 30 29 29 25 19 14 11 13 13 14 16 16 21 23 24 25 26 25 25 42 58 62 63 65 65 64 63 60 58 59 60 60 60 59 60 59 58 57 58 55 54
35 33 34 33 29 28 27 19 15 9 13 12 17 15 15 35 43 43 46 48 45 29 53 59 61 64 61 58 59 57 56 55 56 56 55 55 55 55 54 53 53 53 53 53
33 32 37 36 32 29 28 22 16 17 24 13 16 19 36 45 48 50 53 55 56 57 59 59 57 57 56 56 55 55 55 55 55 55 54 54 54 53 53 53 53 53 52 53
37 32 35 35 36 33 21 20 16 20 16 17 21 27 29 42 45 48 50 51 52 54 55 55 56 55 56 56 55 55 56 54 53 52 52 53 51 53 53 53 51 51 52 52
40 36 36 38 34 34 27 20 23 23 26 21 23 30 38 44 46 48 50 50 51 52 53 53 53 53 52 53 53 53 52 52 48 51 49 51 51 52 51 50 50 50 50 51
41 38 33 32 33 33 31 22 25 22 20 25 24 30 43 47 48 49 50 51 51 51 50 48 47 48 48 49 49 49 50 47 46 46 46 46 46 46 47 47 48 49 49 49
42 38 31 31 34 33 30 30 23 25 28 23 26 31 43 48 48 50 49 49 48 47 46 45 45 45 45 45 45 44 43 43 44 44 44 45 45 46 46 46 46 47 47 47
45 41 30 27 30 32 30 30 28 26 25 29 25 36 44 46 46 49 49 49 48 47 47 47 47 47 46 45 43 43 43 44 44 44 44 44 43 43 43 43 43 43 44 44
42 37 32 35 33 31 29 28 28 24 27 24 33 37 43 46 46 48 48 50 49 48 47 47 47 46 46 43 42 42 42 42 43 42 41 41 41 41 41 41 41 41 42 42
41 38 35 35 36 36 27 28 33 28 30 32 37 39 43 48 48 48 48 47 44 41 43 43 42 41 41 41 41 40 41 40 40 39 39 39 39 39 40 40 40 40 40 40
39 39 34 34 38 36 32 33 34 34 37 37 36 40 47 47 47 47 48 43 41 43 41 40 39 39 39 39 39 39 39 39 38 37 37 37 37 37 37 38 39 39 39 39
39 38 35 33 35 29 36 42 41 38 41 41 43 45 46 45 43 42 43 43 42 40 39 38 37 37 38 38 38 38 37 37 37 36 36 36 36 36 36 37 38 38 38 38
43 41 35 30 30 36 38 41 41 37 40 43 42 43 39 40 41 41 42 42 40 39 37 37 37 36 36 35 36 35 34 34 34 35 35 35 35 35 35 36 37 37 37 38
44 42 35 32 28 30 38 42 44 42 39 42 41 41 40 41 38 40 40 39 38 37 37 37 35 35 35 34 34 33 33 34 34 35 35 36 36 35 35 36 36 37 37 37
39 38 33 33 33 36 42 43 45 32 36 41 41 42 41 39 39 40 39 39 39 38 36 36 35 34 34 34 34 33 34 34 34 34 35 35 35 36 36 36 36 37 37 37
37 36 32 34 31 33 44 44 37 39 42 42 40 39 39 39 39 39 39 39 39 37 36 35 35 34 33 33 33 34 34 34 35 35 34 34 34 35 36 36 36 36 37 37
36 38 34 36 36 42 44 42 44 42 40 40 39 38 38 37 38 38 38 38 38 37 37 36 35 34 33 33 33 34 34 35 35 35 34 34 35 35 35 35 35 36 37 37
43 43 40 38 40 39 39 41 41 41 41 40 39 37 36 36 36 36 37 37 37 37 37 36 34 33 32 33 33 32 36 37 34 35 35 35 34 34 34 35 36 36 37 37
43 42 38 37 37 37 37 37 37 37 35 33 34 34 33 33 33 32 32 32 32 32 33 33 32 31 31 31 31 32 36 36 34 36 35 35 34 33 33 34 36 36 37 38
44 39 38 37 38 35 34 35 35 33 32 33 33 32 32 32 32 31 31 32 31 31 31 30 30 30 31 30 30 32 35 35 33 33 34 35 33 33 33 34 34 36 37 37
Lifted_Index
7 7 7 7 7 7 7 6 6 7 7 6 6 6 6 5 5 5 5 5 5 5 4 1 -3 -5 -5 -4 -4 -4 -3 -3 -2 -2 -1 -1 -2 -2 -3 -3 -3 -3 -3 -3
6 7 7 7 8 7 7 6 6 6 7 6 6 6 6 5 5 5 5 5 5 5 4 1 -2 -4 -5 -4 -4 -4 -4 -3 -3 -2 -1 -1 -2 -2 -2 -3 -3 -2 -2 -3
5 6 6 7 7 7 6 6 6 6 5 5 5 5 5 5 5 5 5 5 5 5 4 1 -2 -3 -4 -4 -4 -4 -4 -4 -3 -2 -2 -1 -1 -2 -2 -2 -2 -1 -2 -2
4 4 5 6 6 6 5 6 6 4 3 3 4 4 4 4 4 4 4 4 4 4 3 1 -1 -3 -3 -4 -4 -4 -4 -3 -3 -2 -1 -1 -1 -1 -1 -1 -1 -1 -1 -1
3 3 4 4 5 5 5 5 5 4 3 3 3 4 3 3 3 3 3 3 4 4 3 1 -2 -3 -3 -3 -3 -3 -3 -2 -2 -1 -1 -2 -2 -2 -2 -2 -2 -2 -2 -2
1 1 2 3 3 3 3 3 3 2 2 2 3 4 3 3 3 3 3 3 3 3 2 0 -2 -4 -3 -3 -3 -2 -2 -2 -2 -2 -3 -4 -4 -4 -4 -4 -4 -3 -4 -4
0 0 1 1 2 2 2 2 1 1 1 1 2 3 3 3 2 2 3 2 2 2 1 -1 -4 -5 -4 -4 -3 -2 -2 -3 -3 -4 -5 -5 -5 -5 -5 -5 -4 -4 -4 -4
-0 -0 0 1 1 1 1 1 1 1 1 1 2 2 2 2 2 2 1 1 1 1 -1 -3 -5 -5 -5 -5 -4 -4 -4 -4 -5 -5 -6 -6 -5 -5 -4 -4 -4 -3 -3 -3
-0 -0 -0 -0 0 0 1 1 2 2 1 1 2 1 1 1 1 1 -0 -1 -1 -2 -2 -4 -5 -6 -5 -5 -5 -4 -4 -4 -4 -5 -5 -5 -5 -4 -4 -3 -3 -2 -1 -1
-0 -0 -0 -0 -0 -0 0 1 2 2 1 1 1 1 0 0 0 -0 -1 -2 -2 -2 -3 -4 -5 -5 -4 -4 -4 -4 -3 -3 -3 -3 -4 -4 -3 -3 -3 -2 -1 0 1 1
-0 -0 -0 -0 -0 0 1 1 2 2 2 1 0 -0 -0 -0 -1 -1 -1 -2 -2 -3 -3 -4 -4 -3 -3 -2 -2 -2 -1 -1 -1 -1 -1 -1 -1 -1 -0 0 1 3 3 4
-0 -0 -0 0 0 0 1 1 2 2 2 1 -0 -0 -1 -1 -2 -2 -2 -2 -3 -3 -3 -3 -2 -2 -1 -0 0 1 1 1 1 2 2 2 2 3 3 3 4 5 5 6
0 0 0 0 0 0 1 1 1 1 1 0 -0 -1 -1 -1 -2 -2 -2 -3 -3 -3 -2 -2 -1 -1 0 1 1 2 3 3 3 4 4 5 5 5 5 6 6 6 6 7
1 0 0 0 0 0 0 0 1 1 1 0 -0 -1 -1 -2 -2 -2 -2 -2 -2 -2 -2 -1 -0 1 1 2 2 3 4 4 4 5 5 6 6 6 6 7 7 7 8 8
1 0 -0 -0 -0 -0 0 -0 -0 -0 0 0 -0 -1 -1 -2 -2 -2 -2 -1 -1 -1 -1 -1 0 1 2 3 4 4 5 5 5 5 6 6 6 7 7 7 8 9 9 9
1 0 -0 -1 -1 -1 -0 -0 -1 -1 -0 -0 -0 -1 -1 -1 -2 -2 -1 -1 -1 -1 -1 -0 1 2 2 3 4 4 5 5 6 6 6 7 7 8 8 9 9 10 10 10
1 0 -0 -0 -1 -1 -0 -1 -1 -1 -1 -1 -1 -1 -1 -1 -1 -1 -1 -1 -1 -1 -1 0 1 2 3 4 4 5 5 6 6 6 7 8 9 9 10 10 10 10 10 10
1 1 0 0 -0 -0 -0 -0 -1 -1 -1 -1 -1 -1 -1 -1 -1 -0 -0 -0 -1 -0 0 1 2 3 3 4 5 6 7 7 8 8 8 9 9 10 10 10 10 9 9 9
2 1 1 1 0 0 -0 -0 -0 -0 -1 -1 -1 -1 -1 -1 -0 -0 -0 0 0 1 2 2 3 3 4 6 7 8 9 9 9 9 9 10 10 10 9 9 9 9 8 8
2 1 1 1 1 0 0 -0 -0 -0 -0 -1 -1 -1 -1 -1 -0 0 1 1 2 2 3 3 3 3 5 7 10 11 11 11 11 11 10 10 9 9 9 8 9 9 9 8
1 1 1 1 1 1 1 0 -0 -0 -0 -0 -1 -1 -1 -1 -0 1 2 3 3 3 3 4 4 5 7 10 12 13 13 13 13 12 11 10 9 9 8 9 9 9 9 9
1 1 1 1 1 1 1 1 0 0 0 -0 -0 -0 -1 -0 0 1 2 3 4 4 5 7 8 10 12 13 14 14 14 14 13 12 11 10 9 9 9 9 9 10 10 9
1 1 1 1 2 1 1 1 0 0 0 -0 -0 -0 -0 -0 1 2 3 4 5 7 9 11 12 13 14 15 15 16 16 15 13 12 11 10 10 10 10 10 10 10 10 10
1 1 1 1 2 2 1 1 0 0 -0 0 0 0 0 1 2 3 4 6 8 10 12 14 14 14 15 16 16 17 17 15 13 11 10 10 10 10 10 10 10 10 10 10
1 1 1 1 1 1 1 1 0 0 0 1 1 2 2 2 3 5 7 9 11 13 14 14 15 15 15 16 17 17 17 15 13 11 10 10 10 10 10 10 10 10 10 10
1 1 1 1 1 1 1 0 0 0 1 1 2 2 3 4 5 7 9 11 12 14 14 15 15 16 16 16 17 17 17 16 13 11 10 10 10 9 9 9 9 10 10 10